Showing default

AISSAT 2, 40075

Orbit data source: Space-Track

AISSAT 2, 40075 is a payload satellite owned by NSC (NO) in SSO that was launched on Tue, 08 Jul 2014 UTC via a SOYUZ-2-1B launch vehicle from the Tyuratam Missile And Space Complex (TTMTR). Payload-class satellites include a variety of spacecraft equipped with specific instruments for various scientific and technological missions. These include communications satellites like Starlink; space stations such as the ISS; scientific satellites like the Hubble; Earth observation satellites from companies like Planet Labs, Umbra, and HawkEye 360; GPS; miniature CubeSats for education and research; and military/defense satellites.

Loading next visibility...
Identifier
40075, 2014-037G
Orbit
SSO
Last TLE update
16 hours ago
Origin
Manufacturer
UTIAS-SFL
Mission
Non-operational Civil Communications
Bus & Motor
GNB, Unknown motor
Mass
7 kg wet, 7 kg dry
Launch date (UTC)
2014-07-08 (11 years ago)
Launch vehicle
SOYUZ-2-1B
Launch site
Tyuratam Missile And Space Complex (TTMTR)
Object type
Payload
Rocket body
Debris
Shape & HBR
Box + 2 Ant, 1 m
Radar Cross Section
0.093 m², Medium (>0.1 m² and < 1m²)

Expand to show TLE details & history

TLE from 16 hours ago
0 AISSAT 2
1 40075U 14037G   25128.70895007  .00003406  00000-0  35090-3 0  9998
2 40075  98.3550  71.1825 0005995 130.2954 229.8788 14.90984417586420
Epoch: 2025-05-08T17:00Z
Definitive object data (Epoch: 2025-05-08T17:00:53.286Z)
Latitude
0.00007°
Longitude
-50.81509°
Altitude
600.583 km
Speed
7.558 km/s
True Right ascension
04h 44m 43s
True Declination
0° 00' 00"
Sunlit
Object was in daylight at TLE epoch
Visualization TLE readout
Latitude
41.00925°
Longitude
-57.394°
Altitude
600.551 km
Speed
7.563 km/s
Apparent Right ascension
04h 51m 45s
Apparent Declination
2° 46' 10"
Sunlit
Object is in daylight
Visualization observer readout
Local Sidereal Time
17:27:41
Azimuth
13.097° NNE
Elevation
-46.527°
Doppler factor
1
Orbital elements
Apogee altitude
596.09 km
Perigee altitude
587.733 km
Semi-major axis
6,970.049 km
Eccentricity
0.0005995
Inclination
98.355°
RAAN
71.1825°
Arg. of periapsis
130.2954°
True anomaly
229.82629°
Mean anomaly
229.8788°
Eccentric anomaly
229.85254°
Mean motion
3.72983 °/min
BSTAR
0.0003509
Orbital period
96.52 mins
Loading maneuver chart data...
Loading SW <> Apogee altitude chart data...
Loading historical data...
Loading historical data...
Loading historical data...
Loading historical data...
Loading historical data...
Loading historical data...
Loading historical data...

AISSAT 2 Visibility forecast

Observer location: undefined°, undefined°

Span
Click to sort rows by Start time (UTC) header in descending order
Start Az.
Max El. time (UTC)
Max El. Az.
Max El.
End time (UTC)
End Az.
6 mins2025-05-09 09:41:22.691Z345.863° N2025-05-09 09:44:22.691Z282.371° WNW27.991°2025-05-09 09:47:22.691Z229.624° WSW
6 mins2025-05-09 20:31:22.691Z191.733° SSW2025-05-09 20:34:22.691Z262.794° W35.697°2025-05-09 20:37:22.691Z329.148° NNW
5 mins2025-05-10 08:16:22.691Z61.289° ENE2025-05-10 08:18:22.691Z103.333° ESE21.995°2025-05-10 08:21:22.691Z150.411° SSE
|